This is the latest recevied weather packets stored in our database for station/object W2IRT. If no packets are shown the sender has not sent any weather packets the latest 10 day(s).
| Time | Temp. | Humidity | Pressure | Rain* | Wind** | Luminosity | Snow |
|---|---|---|---|---|---|---|---|
| 1788550215 | 28.33° C | 54% | 1010.7 hPa | 0 mm | - | - | - |
| 1788549915 | 28.89° C | 53% | 1010.7 hPa | 0 mm | - | - | - |
| 1788549617 | 28.89° C | 52% | 1010.7 hPa | 0 mm | - | - | - |
| 1788549317 | 28.89° C | 55% | 1010.7 hPa | 0 mm | - | - | - |
| 1788549017 | 28.33° C | 54% | 1010.7 hPa | 0 mm | - | - | - |
| 1788548715 | 28.33° C | 57% | 1010.8 hPa | 0 mm | - | - | - |
| 1788548417 | 28.33° C | 53% | 1011 hPa | 0 mm | - | - | - |
| 1788548117 | 28.33° C | 55% | 1011 hPa | 0 mm | - | - | - |
| 1788547817 | 28.33° C | 57% | 1011 hPa | 0 mm | - | - | - |
| 1788547527 | 28.33° C | 54% | 1011.1 hPa | 0 mm | - | - | - |
| 1788547217 | 28.33° C | 57% | 1011.2 hPa | 0 mm | - | - | - |
| 1788546917 | 28.33° C | 56% | 1011.2 hPa | 0 mm | - | - | - |
| 1788546617 | 28.33° C | 56% | 1011.2 hPa | 0 mm | - | - | - |
| 1788546317 | 27.78° C | 56% | 1011.2 hPa | 0 mm | - | - | - |
| 1788546017 | 28.33° C | 57% | 1011.1 hPa | 0 mm | - | - | - |
| 1788545717 | 28.33° C | 56% | 1011.2 hPa | 0 mm | - | - | - |
| 1788545417 | 28.33° C | 54% | 1011.2 hPa | 0 mm | - | - | - |
| 1788545117 | 28.33° C | 57% | 1011.2 hPa | 0 mm | - | - | - |
| 1788544817 | 28.33° C | 53% | 1011 hPa | 0 mm | - | - | - |
| 1788544517 | 28.33° C | 56% | 1011.1 hPa | 0 mm | - | - | - |
| 1788544217 | 28.33° C | 57% | 1011.1 hPa | 0 mm | - | - | - |
| 1788543922 | 28.33° C | 54% | 1010.9 hPa | 0 mm | - | - | - |
| 1788543617 | 28.33° C | 57% | 1011.1 hPa | 0 mm | - | - | - |
| 1788543317 | 28.33° C | 56% | 1011.1 hPa | 0 mm | - | - | - |
| 1788543016 | 28.33° C | 56% | 1010.9 hPa | 0 mm | - | - | - |
* Rain latest hour (hover to see other rain measurements)
** Current wind speed in m/s (hover to see current wind gust speed)